FW0019 Weather Reports


time (UTC)temp
F
wind
direction
speed
knots
gust
knots
rain 1hr
in
rain 24hr
in
rain mn
in
humidity
%
barometer
mb
20260906183016 72 141 5.2 8.7 0.00 0.03 0.03 72 880.9
20260906181512 72 120 4.3 7.0 0.00 0.03 0.03 71 880.9
20260906180010 72 120 3.5 7.0 0.00 0.03 0.03 72 880.9
20260906174510 71 155 3.5 4.3 0.00 0.03 0.03 74 880.8
20260906173005 70 121 2.6 4.3 0.00 0.03 0.03 75 880.8
20260906171504 70 126 2.6 6.1 0.00 0.03 0.03 77 880.8
20260906170005 69 90 1.7 7.0 0.00 0.03 0.03 78 880.6
20260906164602 69 123 4.3 7.0 0.00 0.03 0.03 78 880.4
20260906163100 69 123 3.5 7.8 0.00 0.03 0.03 79 880.3
20260906161557 68 156 4.3 8.7 0.00 0.03 0.03 82 880.3
20260906160055 68 91 3.5 7.8 0.00 0.03 0.03 83 880.2
20260906154554 68 115 3.5 6.1 0.00 0.03 0.03 85 880.2
20260906153053 67 144 1.7 3.5 0.00 0.03 0.03 85 880.2
20260906151607 67 136 2.6 6.1 0.00 0.03 0.03 84 880.1
20260906150057 66 140 1.7 4.3 0.00 0.03 0.03 87 880.1
20260906144550 65 138 1.7 2.6 0.00 0.03 0.03 89 880.1
20260906143106 65 107 0.9 3.5 0.00 0.03 0.03 89 880.0
20260906141548 64 105 0.9 4.3 0.00 0.03 0.03 90 879.8
20260906140050 64 68 0.0 2.6 0.00 0.03 0.03 91 879.6
20260906134553 64 112 0.0 3.5 0.00 0.03 0.03 90 879.4
20260906133046 64 115 0.9 4.3 0.00 0.03 0.03 91 879.2
20260906131549 64 92 0.9 3.5 0.00 0.03 0.03 91 879.2
20260906130051 64 112 1.7 4.3 0.00 0.03 0.03 90 879.1
20260906124547 64 122 0.9 4.3 0.00 0.03 0.03 90 879.0
20260906123112 64 133 1.7 3.5 0.00 0.03 0.03 91 879.0
20260906121544 64 104 3.5 6.1 0.00 0.03 0.03 91 879.0
20260906120042 64 136 1.7 3.5 0.03 0.03 0.03 91 879.1
20260906114542 63 128 0.9 4.3 0.03 0.03 0.03 90 879.2
20260906113042 63 113 2.6 4.3 0.03 0.03 0.03 89 879.2
20260906111539 63 69 1.7 7.0 0.03 0.03 0.03 86 879.3
20260906110037 64 109 3.5 7.0 0.00 0.00 0.00 82 879.2
20260906104535 63 117 4.3 7.8 0.00 0.00 0.00 81 879.2
20260906103033 63 98 2.6 5.2 0.00 0.00 0.00 78 879.1
20260906101530 65 102 3.5 7.8 0.00 0.00 0.00 71 879.1
20260906100028 65 107 4.3 7.8 0.00 0.00 0.00 70 879.1
20260906094523 66 119 3.5 6.1 0.00 0.00 0.00 65 879.1
20260906093023 67 111 2.6 7.0 0.00 0.00 0.00 59 879.1
20260906091520 67 132 4.3 8.7 0.00 0.00 0.00 59 879.2
20260906090018 67 113 5.2 8.7 0.00 0.00 0.00 60 879.3
20260906084518 67 117 4.3 7.8 0.00 0.00 0.00 59 879.2
20260906083016 67 108 4.3 7.0 0.00 0.00 0.00 59 879.5
20260906081515 67 101 1.7 7.0 0.00 0.00 0.00 60 879.6
20260906080024 67 111 3.5 7.0 0.00 0.00 0.00 61 879.6
20260906074511 68 121 1.7 6.1 0.00 0.00 0.00 61 879.7
20260906073008 68 70 3.5 7.0 0.00 0.00 0.00 59 879.9
20260906071507 68 105 4.3 7.0 0.00 0.00 0.00 60 879.9
20260906070005 67 87 1.7 4.3 0.00 0.00 0.00 61 879.8
20260906064506 67 119 1.7 3.5 0.00 0.00 0.00 62 879.9
20260906063004 67 119 0.0 2.6 0.00 0.00 0.00 61 879.9
20260906061504 67 119 0.9 3.5 0.00 0.00 0.00 62 879.8
20260906060003 67 98 0.9 3.5 0.00 0.00 0.00 63 879.9
20260906054503 67 113 1.7 3.5 0.00 0.00 0.00 63 879.9
20260906053001 67 109 1.7 4.3 0.00 0.00 0.00 64 880.0
20260906051503 67 130 1.7 3.5 0.00 0.00 0.00 63 879.9
20260906050100 67 126 1.7 6.1 0.00 0.00 0.00 62 880.0
20260906044600 67 103 3.5 7.0 0.00 0.00 0.00 62 880.0
20260906043102 67 109 4.3 7.8 0.00 0.00 0.00 61 880.0
20260906041602 67 114 3.5 7.0 0.00 0.00 0.00 61 879.9
20260906040058 67 108 4.3 7.0 0.00 0.00 0.00 60 879.7
20260906034557 67 102 5.2 7.8 0.00 0.00 0.00 59 879.6
20260906033109 68 136 5.2 8.7 0.00 0.00 0.00 58 879.5
20260906031555 68 96 3.5 9.6 0.00 0.00 0.00 57 879.4
20260906030055 69 123 6.1 9.6 0.00 0.00 0.00 56 879.3
20260906024556 69 135 7.0 11.3 0.00 0.00 0.00 56 879.2
20260906023056 70 103 6.1 10.4 0.00 0.00 0.00 55 879.1
20260906021558 71 122 7.0 11.3 0.00 0.00 0.00 55 879.3
20260906020104 72 111 6.1 12.2 0.00 0.00 0.00 53 879.3
20260906014554 73 146 7.0 12.2 0.00 0.00 0.00 52 879.4
20260906013058 74 107 6.1 12.2 0.00 0.00 0.00 50 879.5
20260906011601 75 106 6.1 12.2 0.00 0.00 0.00 48 879.5
20260906010049 75 142 7.0 13.0 0.00 0.00 0.00 48 879.5
20260906004556 77 120 4.3 15.6 0.00 0.00 0.00 46 879.6
20260906003047 77 135 7.8 15.6 0.00 0.00 0.00 45 879.5
20260906001548 78 126 7.8 13.0 0.00 0.00 0.00 45 879.5
20260906000053 77 165 7.8 13.9 0.00 0.00 0.00 44 879.5
20260905234547 79 163 8.7 14.8 0.00 0.00 0.00 42 879.4
20260905233044 80 95 8.7 15.6 0.00 0.00 0.00 40 879.6
20260905231543 80 66 5.2 15.6 0.00 0.00 0.00 42 879.6
20260905230041 80 107 5.2 11.3 0.00 0.00 0.00 39 879.6
20260905224548 80 154 8.7 16.5 0.00 0.00 0.00 40 879.6
20260905223039 79 74 6.1 13.9 0.00 0.00 0.00 40 879.7
20260905221538 80 136 9.6 15.6 0.00 0.00 0.00 39 879.6
20260905220037 79 148 7.8 13.9 0.00 0.00 0.00 40 879.9
20260905214536 79 159 7.0 17.4 0.00 0.00 0.00 40 880.1
20260905213035 79 131 6.1 16.5 0.00 0.00 0.00 39 880.2
20260905211544 80 116 3.5 13.9 0.00 0.00 0.00 39 880.3
20260905210033 79 121 7.0 14.8 0.00 0.00 0.00 42 880.4
20260905204537 78 134 8.7 13.9 0.00 0.00 0.00 41 880.4
20260905203031 78 132 7.0 13.9 0.00 0.00 0.00 42 880.5
20260905201531 79 155 7.0 17.4 0.00 0.00 0.00 40 880.5
20260905200032 80 138 8.7 15.6 0.00 0.00 0.00 39 880.4
20260905194527 79 117 5.2 10.4 0.00 0.00 0.00 39 880.6
20260905193025 79 152 8.7 17.4 0.00 0.00 0.00 39 880.8
20260905191527 79 139 8.7 16.5 0.00 0.00 0.00 39 880.9
20260905190024 78 140 5.2 15.6 0.00 0.00 0.00 40 881.0
20260905184542 78 123 3.5 15.6 0.00 0.00 0.00 35 881.0